Location: Newark
(25.0000°N, 73.5000°E)
Time: 23:57:05
(UTC+00:00)

STARLINK-2688 - Pass Details

Date: 16 June 2021
Orbit: 546 x 548 km, 53.1° (Epoch: 03 August)

Event Time Altitude Azimuth Distance (km) Brightness Sun altitude
Exits shadow 23:29:37 11° 214° (SW) 1,711 5.6 -10.1°
Maximum altitude 23:33:28 79° 128° (SE) 557 3.7 -9.3°
Drops below altitude 10° 23:37:35 10° 42° (NE) 1,812 7.7 -8.5°
Sets 23:39:49 0° 41° (NE) 2,707 8.8 -8.1°
